Location: Condor
(52.3263°N, 114.5541°W)
Time: 21:29:31
(UTC+00:00)

Cosmos 1803 Rocket - Visible Passes

Search period start: 27 May 2024 00:00
Search period end: 06 June 2024 00:00
Orbit: 1496 x 1499 km, 82.6° (Epoch: 26 May)

Date Brightness Start Highest point End Pass type
(mag) Time Alt. Az. Time Alt. Az. Time Alt. Az.
27 May 8.2 05:51:25 10° NNE 05:54:15 12° NNE 05:57:05 10° NE visible
27 May 7.1 07:46:40 10° N 07:54:39 36° ENE 08:02:35 10° SE visible
27 May 6.0 09:43:33 10° NNW 09:52:17 70° W 10:01:00 10° S visible
28 May 7.7 06:58:31 10° N 07:05:20 24° NE 07:12:09 10° ESE visible
28 May 6.1 08:55:03 10° N 09:03:55 78° ENE 09:12:44 10° SSE visible
29 May 7.9 06:10:37 10° N 06:15:39 16° NE 06:20:40 10° ENE visible
29 May 6.6 08:06:40 10° N 08:15:14 51° ENE 08:23:43 10° SE visible
29 May 6.3 10:03:51 10° NNW 10:12:10 49° W 10:20:27 10° SSW visible
30 May 8.2 05:23:42 10° NNE 05:25:34 11° NNE 05:27:25 10° NE visible
30 May 7.2 07:18:25 10° N 07:26:13 33° ENE 07:33:57 10° ESE visible
30 May 5.9 09:15:14 10° NNW 09:24:03 77° W 09:32:48 10° S visible
31 May 7.7 06:30:19 10° N 06:36:50 22° NE 06:43:17 10° E visible
31 May 6.1 08:26:46 10° N 08:35:36 71° ENE 08:44:23 10° SSE visible
31 May 6.7 10:24:18 10° NNW 10:31:52 34° W 10:39:25 10° SW visible
01 Jun 7.9 05:42:31 10° N 05:47:02 15° NE 05:51:32 10° ENE visible
01 Jun 6.7 07:38:25 10° N 07:46:50 46° ENE 07:55:12 10° SE visible
01 Jun 6.2 09:35:30 10° NNW 09:43:58 54° W 09:52:22 10° SSW visible
02 Jun 7.3 06:50:12 10° N 06:57:45 30° ENE 07:05:14 10° ESE visible
02 Jun 5.9 08:46:55 10° NNW 08:55:46 84° W 09:04:03 12° S visible
03 Jun 7.8 06:02:08 10° N 06:08:16 20° NE 06:14:22 10° E visible
03 Jun 6.2 07:58:29 10° N 08:07:16 65° ENE 08:15:48 11° SSE visible
03 Jun 6.6 09:55:55 10° NNW 10:03:43 38° W 10:11:31 10° SW visible
04 Jun 8.0 05:14:27 10° N 05:18:24 13° NE 05:22:20 10° ENE visible
04 Jun 6.8 07:10:10 10° N 07:18:27 42° ENE 07:26:40 10° SE visible
04 Jun 6.1 09:07:10 10° NNW 09:15:46 60° W 09:23:31 13° SSW visible
05 Jun 7.4 06:21:58 10° N 06:29:16 28° NE 06:36:30 10° ESE visible
05 Jun 5.9 08:18:38 10° N 08:27:30 89° E 08:35:17 14° S visible
05 Jun 7.0 10:16:32 10° NNW 10:23:17 26° WNW 10:30:02 10° SW visible
